Regional Weather Roundup
Issued by NWS Bismarck, ND

Home | Current Version | Previous Version | Text Only | Print | Product List | Glossary On
Versions: 1 2 3 4 5 6 7 8 9 10 11 12 13 14 15 16 17 18 19 20 21 22 23 24 25 26 27 28 29 30 31 32 33 34 35 36 37 38 39 40 41 42 43 44 45 46 47 48 49 50
000
ASUS43 KBIS 162110
RWRBIS

NWR BROADCAST TEXT
NATIONAL WEATHER SERVICE BISMARCK ND
300 PM CST MON JAN 16 2017

NOTE: "FAIR" INDICATES FEW OR NO CLOUDS BELOW 12,000 FEET WITH NO
SIGNIFICANT WEATHER AND/OR OBSTRUCTIONS TO VISIBILITY.


CITY           SKY/WX    TMP DP  RH WIND       PRES   REMARKS
WILLISTON      FAIR      20  14  77 SW7       30.10F WCI  11
MINOT          FAIR      29  22  75 W17       30.03S WCI  17
MINOT AFB      NOT AVBL
BISMARCK       FAIR      27  16  63 NW6       30.06R
DICKINSON      FAIR      21  14  74 W15       30.03F WCI   8
GARRISON         N/A     22  15  75 NW16      30.03F WCI   8
HETTINGER ARPT FAIR      22  16  78 W9        30.05S WCI  12
JAMESTOWN      FAIR      18  11  74 W9        30.01F WCI   7
CARRINGTON     FAIR      19  14  79 NW13      30.03S WCI   7
HAZEN            N/A    N/A N/A N/A W5        30.08S
RUGBY            N/A     14  10  85 W9        30.01F WCI   2
STANLEY        FAIR      19  18  93 NW9       30.07S WCI   9
TIOGA          FAIR      19  18  93 W13       30.07F WCI   7
WATFORD CITY   FAIR      18  12  79 SW6       30.09F WCI   9
$$

CITY           SKY/WX    TMP DP  RH WIND       PRES   REMARKS
GRAND FORKS    FAIR      20  12  71 SW5       30.03R WCI  13
GRAND FORKS AF FAIR      21  12  68 W6        30.03R WCI  13
DEVILS LAKE    FAIR      16  11  80 W6        30.01R WCI   7
FARGO          FAIR      21  11  65 W6        30.05S WCI  13
CAVALIER         N/A     18   9  68 SE6       30.03R WCI   9
GRAFTON        FAIR      18  10  73 CALM      30.05R
GWINNER        FAIR      23  16  74 NW7       30.04S WCI  15
ROLLA            N/A    N/A N/A N/A MISG        N/A
$$

CITY           SKY/WX    TMP DP  RH WIND       PRES   REMARKS
ABERDEEN       FAIR      23   8  52 CALM      30.03F
MOBRIDGE       FAIR      20   9  62 NW7       30.03S WCI  11
BUFFALO          N/A     27  17  66 NW16      29.99S WCI  15
RAPID CITY     FAIR      34  20  56 N20       30.04S
GLASGOW        FAIR      19   7  59 W10       30.09F WCI   7
SIDNEY         FAIR      19  12  74 S8        30.11F WCI   9
WOLF POINT     FAIR      18  10  71 W8        30.12S WCI   8
GLENDIVE       FAIR      18  10  71 S7        30.10F WCI   9
MILES CITY     FAIR      16   6  65 S5        30.11F WCI   9
BAKER          FAIR      19  11  70 W8        30.09F WCI   9
$$

CITY           SKY/WX    TMP DP  RH WIND       PRES   REMARKS
BILLINGS       FAIR      26  11  52 SW18      30.07F WCI  13
GREAT FALLS    FAIR      33  19  56 SW22      30.01F
REGINA         PTSUNNY   25  18  74 S5        30.02F WCI  19
ESTEVAN        MOSUNNY   18  14  86 SW8       30.06R WCI   7
$$




USA.gov is the U.S. government's official web portal to all federal, state and local government web resources and services.